QPF
0.00 0.00 0.00 0.00 0.00 0.00 0.00 0.00 0.00 0.00 0.00 0.00 0.00 0.00 0.00 0.00 0.00 0.00 0.00 0.00 0.00 0.00 0.00 0.00 0.00 0.00 0.00 0.00 0.00 0.00 0.00 0.00 0.00 0.00 0.00 0.00 0.00 0.00 0.00 0.00 0.00 0.00 0.00 0.00 0.00
0.00 0.00 0.00 0.00 0.00 0.00 0.00 0.00 0.00 0.00 0.00 0.00 0.00 0.00 0.00 0.00 0.00 0.00 0.00 0.00 0.00 0.00 0.00 0.00 0.00 0.00 0.00 0.00 0.00 0.00 0.00 0.00 0.00 0.00 0.00 0.00 0.00 0.00 0.00 0.00 0.00 0.00 0.00 0.00 0.00
0.00 0.00 0.00 0.00 0.00 0.00 0.00 0.00 0.00 0.00 0.00 0.00 0.00 0.00 0.00 0.00 0.00 0.00 0.00 0.00 0.00 0.00 0.00 0.00 0.00 0.00 0.00 0.00 0.00 0.00 0.00 0.00 0.00 0.00 0.00 0.00 0.00 0.00 0.00 0.00 0.00 0.00 0.00 0.00 0.00
0.00 0.00 0.00 0.00 0.00 0.00 0.00 0.00 0.00 0.00 0.00 0.00 0.00 0.00 0.00 0.00 0.00 0.00 0.00 0.00 0.00 0.00 0.00 0.00 0.00 0.00 0.00 0.00 0.00 0.00 0.00 0.00 0.00 0.00 0.00 0.00 0.00 0.00 0.00 0.00 0.00 0.00 0.00 0.00 0.00
0.00 0.00 0.00 0.00 0.00 0.00 0.00 0.00 0.00 0.00 0.00 0.00 0.00 0.00 0.00 0.00 0.00 0.00 0.00 0.00 0.00 0.00 0.00 0.00 0.00 0.00 0.00 0.00 0.00 0.00 0.00 0.00 0.00 0.00 0.00 0.00 0.00 0.00 0.00 0.00 0.00 0.00 0.00 0.00 0.00
0.00 0.00 0.00 0.00 0.00 0.00 0.00 0.00 0.00 0.00 0.00 0.00 0.00 0.00 0.00 0.00 0.00 0.00 0.00 0.00 0.00 0.00 0.00 0.00 0.00 0.00 0.00 0.00 0.00 0.00 0.00 0.00 0.00 0.00 0.00 0.00 0.00 0.00 0.00 0.00 0.00 0.00 0.00 0.00 0.00
0.00 0.00 0.00 0.00 0.00 0.00 0.00 0.00 0.00 0.00 0.00 0.00 0.00 0.00 0.00 0.00 0.00 0.00 0.00 0.00 0.00 0.00 0.00 0.00 0.00 0.00 0.00 0.00 0.00 0.00 0.00 0.00 0.00 0.00 0.00 0.00 0.00 0.00 0.00 0.00 0.00 0.00 0.00 0.00 0.00
0.00 0.00 0.00 0.00 0.00 0.00 0.00 0.00 0.00 0.00 0.00 0.00 0.00 0.00 0.00 0.00 0.00 0.00 0.00 0.00 0.00 0.00 0.00 0.00 0.00 0.00 0.00 0.00 0.00 0.00 0.00 0.00 0.00 0.00 0.00 0.00 0.00 0.00 0.00 0.00 0.00 0.00 0.00 0.00 0.00
0.00 0.00 0.00 0.00 0.00 0.00 0.00 0.00 0.00 0.00 0.00 0.00 0.00 0.00 0.00 0.00 0.00 0.00 0.00 0.00 0.00 0.00 0.00 0.00 0.00 0.00 0.00 0.00 0.00 0.00 0.00 0.00 0.00 0.00 0.00 0.00 0.00 0.00 0.00 0.00 0.00 0.00 0.00 0.00 0.00
0.00 0.00 0.00 0.00 0.00 0.00 0.00 0.00 0.00 0.00 0.00 0.00 0.00 0.00 0.00 0.00 0.00 0.00 0.00 0.00 0.00 0.00 0.00 0.00 0.00 0.00 0.00 0.00 0.00 0.00 0.00 0.00 0.00 0.00 0.00 0.00 0.00 0.00 0.00 0.00 0.00 0.00 0.00 0.00 0.00
0.00 0.00 0.00 0.00 0.00 0.00 0.00 0.00 0.00 0.00 0.00 0.00 0.00 0.00 0.00 0.00 0.00 0.00 0.00 0.00 0.00 0.00 0.00 0.00 0.00 0.00 0.00 0.00 0.00 0.00 0.00 0.00 0.00 0.00 0.00 0.00 0.00 0.00 0.00 0.00 0.00 0.00 0.00 0.00 0.00
0.00 0.00 0.00 0.00 0.00 0.00 0.00 0.00 0.00 0.00 0.00 0.00 0.00 0.00 0.00 0.00 0.00 0.00 0.00 0.00 0.00 0.00 0.00 0.00 0.00 0.00 0.00 0.00 0.00 0.00 0.00 0.00 0.00 0.00 0.00 0.00 0.00 0.00 0.00 0.00 0.00 0.00 0.00 0.00 0.00
0.00 0.00 0.00 0.00 0.00 0.00 0.00 0.00 0.00 0.00 0.00 0.00 0.00 0.00 0.00 0.00 0.00 0.00 0.00 0.00 0.00 0.00 0.00 0.00 0.00 0.00 0.00 0.00 0.00 0.00 0.00 0.00 0.00 0.00 0.00 0.00 0.00 0.00 0.00 0.00 0.00 0.00 0.00 0.00 0.00
0.00 0.00 0.00 0.00 0.00 0.00 0.00 0.00 0.00 0.00 0.00 0.00 0.00 0.00 0.00 0.00 0.00 0.00 0.00 0.00 0.00 0.00 0.00 0.00 0.00 0.00 0.00 0.00 0.00 0.00 0.00 0.00 0.00 0.00 0.00 0.00 0.00 0.00 0.00 0.00 0.00 0.00 0.00 0.00 0.00
0.00 0.00 0.00 0.00 0.00 0.00 0.00 0.00 0.00 0.00 0.00 0.00 0.00 0.00 0.00 0.00 0.00 0.00 0.00 0.00 0.00 0.00 0.00 0.00 0.00 0.00 0.00 0.00 0.00 0.00 0.00 0.00 0.00 0.00 0.00 0.00 0.00 0.00 0.00 0.00 0.00 0.00 0.00 0.00 0.00
0.00 0.00 0.00 0.00 0.00 0.00 0.00 0.00 0.00 0.00 0.00 0.00 0.00 0.00 0.00 0.00 0.00 0.00 0.00 0.00 0.00 0.00 0.00 0.00 0.00 0.00 0.00 0.00 0.00 0.00 0.00 0.00 0.00 0.00 0.00 0.00 0.00 0.00 0.00 0.00 0.00 0.00 0.00 0.00 0.00
0.00 0.00 0.00 0.00 0.00 0.00 0.00 0.00 0.00 0.00 0.00 0.00 0.00 0.00 0.00 0.00 0.00 0.00 0.00 0.00 0.00 0.00 0.00 0.00 0.00 0.00 0.00 0.00 0.00 0.00 0.00 0.00 0.00 0.00 0.00 0.00 0.00 0.00 0.00 0.00 0.00 0.00 0.00 0.00 0.00
0.00 0.00 0.00 0.00 0.00 0.00 0.00 0.00 0.00 0.00 0.00 0.00 0.00 0.00 0.00 0.00 0.00 0.00 0.00 0.00 0.00 0.00 0.00 0.00 0.00 0.00 0.00 0.00 0.00 0.00 0.00 0.00 0.00 0.00 0.00 0.00 0.00 0.00 0.00 0.00 0.00 0.00 0.00 0.00 0.00
0.00 0.00 0.00 0.00 0.00 0.00 0.00 0.00 0.00 0.00 0.00 0.00 0.00 0.00 0.00 0.00 0.00 0.00 0.00 0.00 0.00 0.00 0.00 0.00 0.00 0.00 0.00 0.00 0.00 0.00 0.00 0.00 0.00 0.00 0.00 0.00 0.00 0.00 0.00 0.00 0.00 0.00 0.00 0.00 0.00
0.00 0.00 0.00 0.00 0.00 0.00 0.00 0.00 0.00 0.00 0.00 0.00 0.00 0.00 0.00 0.00 0.00 0.00 0.00 0.00 0.00 0.00 0.00 0.00 0.00 0.00 0.00 0.00 0.00 0.00 0.00 0.00 0.00 0.00 0.00 0.00 0.00 0.00 0.00 0.00 0.00 0.00 0.00 0.00 0.00
0.00 0.00 0.00 0.00 0.00 0.00 0.00 0.00 0.00 0.00 0.00 0.00 0.00 0.00 0.00 0.00 0.00 0.00 0.00 0.00 0.00 0.00 0.00 0.00 0.00 0.00 0.00 0.00 0.00 0.00 0.00 0.00 0.00 0.00 0.00 0.00 0.00 0.00 0.00 0.00 0.00 0.00 0.00 0.00 0.01
0.00 0.00 0.00 0.00 0.00 0.00 0.00 0.00 0.00 0.00 0.00 0.00 0.00 0.00 0.00 0.00 0.00 0.00 0.00 0.00 0.00 0.00 0.00 0.00 0.00 0.00 0.00 0.00 0.00 0.00 0.00 0.00 0.00 0.00 0.00 0.00 0.00 0.00 0.00 0.00 0.00 0.00 0.00 0.00 0.01
0.00 0.00 0.00 0.00 0.00 0.00 0.00 0.00 0.00 0.00 0.00 0.00 0.00 0.00 0.00 0.00 0.00 0.00 0.00 0.00 0.00 0.00 0.00 0.00 0.00 0.00 0.00 0.01 0.00 0.00 0.00 0.00 0.00 0.00 0.00 0.00 0.00 0.00 0.00 0.00 0.00 0.00 0.00 0.00 0.00
0.00 0.00 0.00 0.00 0.00 0.00 0.00 0.00 0.00 0.00 0.00 0.00 0.00 0.00 0.00 0.00 0.00 0.00 0.00 0.00 0.00 0.00 0.00 0.00 0.00 0.00 0.00 0.01 0.00 0.00 0.00 0.00 0.00 0.00 0.00 0.00 0.00 0.00 0.00 0.00 0.00 0.00 0.00 0.00 0.00
0.00 0.00 0.00 0.00 0.00 0.00 0.00 0.00 0.00 0.00 0.00 0.00 0.00 0.00 0.00 0.00 0.00 0.00 0.00 0.00 0.00 0.01 0.00 0.00 0.00 0.00 0.00 0.00 0.00 0.00 0.00 0.00 0.00 0.00 0.00 0.00 0.00 0.00 0.00 0.00 0.00 0.00 0.00 0.00 0.00
0.00 0.00 0.00 0.00 0.00 0.00 0.00 0.00 0.00 0.00 0.00 0.00 0.00 0.00 0.00 0.00 0.00 0.00 0.00 0.00 0.00 0.00 0.00 0.00 0.00 0.00 0.00 0.00 0.00 0.00 0.00 0.00 0.00 0.00 0.00 0.00 0.00 0.00 0.00 0.00 0.00 0.00 0.00 0.00 0.00
0.00 0.00 0.00 0.00 0.00 0.00 0.00 0.00 0.00 0.00 0.00 0.00 0.00 0.00 0.00 0.00 0.00 0.00 0.00 0.00 0.00 0.00 0.00 0.00 0.00 0.00 0.00 0.00 0.00 0.01 0.00 0.00 0.00 0.00 0.00 0.00 0.00 0.00 0.00 0.00 0.00 0.00 0.00 0.00 0.00
MSLP
1017.63 1017.55 1017.37 1017.15 1017.04 1016.95 1016.77 1016.68 1016.50 1016.22 1016.03 1015.81 1015.56 1015.32 1015.17 1014.95 1014.60 1014.06 1011.94 1011.13 1011.48 1012.39 1012.17 1011.82 1011.35 1010.79 1010.33 1009.49 1009.45 1009.24 1007.98 1007.80 1008.58 1009.19 1009.92 1010.72 1010.92 1011.98 1012.56 1012.63 1013.13 1013.63 1013.99 1014.66 1016.33
1017.67 1017.48 1017.29 1017.18 1016.95 1016.84 1016.77 1016.62 1016.45 1016.15 1015.94 1015.79 1015.56 1015.32 1015.14 1014.89 1013.56 1011.87 1011.09 1011.53 1011.84 1012.00 1011.40 1010.90 1010.53 1010.40 1009.45 1009.34 1009.22 1008.73 1007.76 1008.34 1009.04 1009.48 1009.65 1010.37 1010.76 1011.39 1012.12 1012.37 1012.97 1013.81 1014.81 1015.36 1016.26
1017.65 1017.39 1017.24 1017.09 1016.96 1016.82 1016.73 1016.65 1016.42 1016.12 1015.88 1015.76 1015.57 1015.33 1015.06 1014.62 1012.54 1009.93 1010.53 1011.47 1011.89 1011.80 1010.85 1010.40 1010.18 1009.93 1009.14 1009.20 1009.10 1009.02 1008.27 1009.31 1009.61 1010.03 1010.25 1009.95 1010.48 1011.04 1011.46 1011.34 1011.78 1012.63 1014.17 1015.29 1015.88
1017.67 1017.36 1017.21 1017.10 1016.93 1016.72 1016.56 1016.44 1016.38 1016.17 1015.90 1015.72 1015.46 1015.24 1014.99 1013.91 1010.68 1010.18 1010.97 1011.42 1011.92 1011.15 1010.76 1010.37 1010.01 1009.49 1008.73 1008.62 1009.29 1008.88 1009.52 1009.56 1009.86 1010.11 1010.14 1009.87 1009.97 1010.55 1010.89 1010.92 1012.29 1012.72 1013.58 1014.81 1015.41
1017.66 1017.40 1017.18 1017.02 1016.89 1016.66 1016.40 1016.33 1016.24 1016.12 1015.86 1015.61 1015.36 1015.15 1014.87 1012.28 1009.46 1010.77 1011.21 1011.77 1011.65 1010.97 1010.20 1009.86 1009.42 1008.99 1008.22 1008.57 1008.95 1008.93 1009.31 1009.66 1010.02 1010.19 1009.96 1009.88 1009.91 1009.97 1010.27 1011.11 1012.66 1012.92 1013.82 1014.45 1015.04
1017.67 1017.35 1017.09 1016.88 1016.80 1016.63 1016.40 1016.24 1016.12 1015.97 1015.72 1015.47 1015.29 1015.18 1013.65 1010.33 1009.67 1010.12 1010.58 1011.33 1010.83 1010.40 1009.82 1009.62 1009.01 1009.05 1008.70 1008.77 1008.82 1009.26 1009.46 1009.44 1009.74 1009.71 1009.92 1009.91 1009.61 1010.56 1010.09 1011.45 1012.37 1012.83 1013.35 1014.00 1014.64
1017.65 1017.35 1017.04 1016.77 1016.64 1016.54 1016.32 1016.09 1015.92 1015.77 1015.55 1015.25 1015.15 1014.49 1012.03 1009.97 1009.84 1010.16 1010.45 1010.56 1010.41 1010.00 1009.57 1009.51 1009.46 1009.21 1009.08 1008.84 1009.51 1009.44 1009.28 1008.76 1009.13 1009.50 1009.58 1010.09 1009.57 1009.57 1009.86 1011.46 1011.83 1012.45 1013.02 1013.59 1014.32
1017.64 1017.29 1016.92 1016.69 1016.53 1016.33 1016.07 1015.78 1015.48 1015.30 1015.20 1015.02 1014.96 1013.77 1010.14 1010.04 1010.02 1010.17 1010.21 1010.38 1010.47 1010.32 1010.04 1009.97 1009.77 1009.34 1009.26 1009.71 1009.22 1008.89 1009.05 1008.21 1008.36 1009.37 1009.70 1010.25 1008.16 1008.32 1009.38 1011.11 1011.43 1012.13 1012.66 1013.36 1014.01
1017.53 1017.17 1016.80 1016.52 1016.30 1016.10 1015.77 1015.38 1014.94 1014.76 1014.85 1014.71 1014.18 1012.50 1009.71 1010.59 1009.88 1009.80 1009.86 1009.79 1010.18 1010.25 1010.19 1010.19 1009.60 1009.04 1009.42 1008.74 1007.85 1007.79 1007.24 1007.26 1007.86 1009.08 1009.25 1009.91 1008.21 1009.27 1010.20 1010.92 1011.02 1011.64 1012.18 1012.87 1013.36
1017.40 1017.05 1016.72 1016.39 1016.11 1015.85 1015.45 1015.19 1014.89 1014.64 1014.44 1013.87 1012.77 1011.64 1009.82 1008.69 1008.94 1009.55 1009.95 1009.75 1009.62 1009.77 1009.86 1009.69 1009.01 1008.45 1008.12 1007.66 1006.43 1006.84 1006.72 1006.81 1007.16 1008.15 1009.03 1008.75 1008.37 1008.63 1010.20 1010.82 1010.91 1011.14 1011.70 1012.23 1012.69
1017.30 1016.94 1016.62 1016.30 1016.01 1015.78 1014.42 1014.33 1014.26 1013.21 1012.27 1010.34 1009.65 1008.90 1008.29 1008.50 1008.84 1008.98 1009.42 1009.44 1009.31 1009.13 1008.49 1008.80 1008.10 1006.97 1006.60 1007.05 1007.36 1007.23 1006.96 1006.75 1006.78 1007.81 1008.49 1007.90 1007.67 1007.81 1008.77 1010.17 1010.52 1010.76 1011.17 1011.66 1012.14
1017.21 1016.84 1016.53 1016.21 1015.96 1015.79 1015.17 1012.38 1011.44 1011.23 1009.87 1009.47 1009.38 1009.02 1008.57 1008.17 1007.90 1008.24 1008.98 1008.80 1008.65 1008.09 1008.03 1008.43 1007.28 1006.92 1007.17 1007.42 1007.34 1006.87 1006.51 1006.17 1006.69 1007.78 1008.27 1007.47 1007.19 1007.24 1007.76 1008.64 1009.61 1010.20 1010.76 1011.20 1011.76
1017.07 1016.73 1016.39 1016.10 1015.82 1015.42 1013.13 1011.61 1011.01 1010.80 1009.47 1008.80 1008.55 1008.04 1007.79 1008.04 1007.15 1007.25 1008.03 1007.62 1007.58 1007.45 1007.59 1007.07 1006.36 1007.16 1007.27 1006.90 1006.85 1006.30 1005.98 1006.15 1006.35 1007.48 1007.72 1007.54 1006.59 1005.69 1007.05 1008.25 1008.93 1009.58 1010.03 1010.60 1011.06
1016.99 1016.59 1016.19 1015.89 1015.93 1013.06 1011.73 1011.25 1011.17 1011.11 1008.67 1008.31 1007.89 1007.39 1007.64 1007.32 1006.91 1006.73 1007.19 1007.07 1006.89 1006.83 1006.92 1006.79 1006.51 1007.00 1006.97 1006.32 1006.14 1005.98 1005.71 1006.05 1006.32 1007.08 1006.24 1007.57 1006.05 1005.69 1006.22 1007.38 1008.13 1008.83 1009.51 1010.08 1010.63
1016.81 1016.41 1016.05 1015.98 1014.33 1012.14 1011.51 1011.21 1010.93 1010.88 1007.91 1007.70 1007.22 1007.41 1007.16 1006.67 1006.24 1006.50 1006.72 1006.59 1006.44 1006.16 1006.94 1006.09 1005.85 1006.02 1006.23 1006.04 1005.91 1005.95 1005.95 1006.01 1006.00 1006.32 1006.62 1006.04 1006.35 1005.35 1006.09 1006.73 1006.98 1008.06 1008.73 1009.39 1009.95
1016.48 1016.17 1015.85 1015.04 1013.99 1011.86 1011.54 1011.25 1010.95 1009.41 1007.45 1007.06 1006.91 1006.70 1006.65 1006.55 1006.11 1005.80 1006.50 1006.76 1006.37 1006.22 1006.11 1006.13 1005.96 1006.28 1006.11 1005.69 1005.70 1005.99 1006.22 1006.17 1006.21 1005.85 1005.60 1005.22 1005.92 1005.39 1005.80 1006.90 1007.44 1007.87 1008.58 1009.07 1009.61
1016.08 1015.85 1015.64 1013.95 1011.82 1011.95 1011.54 1010.61 1009.21 1007.65 1007.91 1007.05 1006.62 1006.54 1006.22 1006.11 1006.21 1005.94 1005.93 1006.16 1006.10 1005.98 1005.55 1005.48 1005.39 1005.66 1005.91 1005.48 1005.51 1005.98 1005.72 1004.91 1004.81 1005.23 1005.56 1006.17 1006.07 1006.05 1006.97 1007.43 1007.92 1008.27 1008.76 1009.47 1009.99
1015.55 1015.29 1014.53 1013.22 1012.58 1012.30 1011.18 1009.68 1008.25 1007.77 1007.36 1007.43 1007.08 1006.67 1006.05 1006.52 1006.26 1006.30 1006.12 1005.63 1005.59 1005.55 1004.99 1004.81 1004.54 1004.62 1005.02 1005.20 1005.12 1005.36 1005.96 1005.82 1005.03 1005.07 1005.38 1006.01 1006.36 1006.79 1007.71 1008.07 1008.38 1008.88 1009.33 1009.81 1010.63
1014.82 1013.78 1012.84 1012.26 1012.53 1012.48 1010.44 1008.54 1007.57 1007.62 1007.77 1007.40 1007.01 1006.54 1006.45 1006.80 1006.89 1006.59 1006.10 1005.56 1005.13 1005.09 1005.39 1004.44 1004.57 1005.13 1005.58 1005.63 1005.82 1005.43 1006.04 1006.50 1006.50 1006.11 1006.13 1005.80 1006.66 1006.87 1007.84 1008.12 1008.77 1009.17 1009.90 1010.28 1010.83
1013.81 1012.18 1011.61 1012.06 1012.35 1011.56 1009.66 1008.29 1008.03 1008.25 1008.09 1007.77 1006.99 1007.20 1006.74 1006.77 1006.92 1006.73 1006.37 1006.66 1006.42 1006.68 1006.38 1005.37 1005.31 1005.34 1005.77 1006.04 1006.24 1006.18 1006.77 1006.69 1006.23 1005.97 1005.73 1006.34 1007.27 1007.10 1008.17 1008.71 1008.76 1009.05 1009.65 1010.26 1010.98
1013.26 1011.07 1011.83 1011.85 1011.90 1010.28 1008.53 1007.92 1008.14 1008.17 1008.33 1007.97 1007.51 1007.51 1007.48 1007.55 1007.41 1006.87 1006.60 1007.07 1007.29 1007.23 1007.18 1006.48 1006.53 1005.75 1006.21 1005.54 1005.54 1006.12 1006.24 1007.02 1007.69 1007.75 1007.20 1006.91 1007.44 1009.16 1009.39 1009.64 1009.65 1009.51 1009.56 1010.23 1011.15
1012.59 1010.30 1011.35 1011.65 1010.38 1009.20 1008.17 1008.34 1009.04 1008.13 1008.31 1008.16 1008.28 1008.05 1007.93 1007.98 1007.75 1007.58 1007.33 1007.74 1008.26 1008.30 1007.39 1007.66 1007.28 1006.51 1006.10 1006.59 1006.95 1006.97 1007.10 1007.76 1007.86 1007.64 1007.54 1008.53 1008.80 1009.84 1010.17 1010.22 1010.50 1010.29 1010.45 1010.87 1011.89
1012.10 1010.74 1010.95 1010.75 1008.89 1008.52 1008.63 1008.40 1008.38 1008.05 1007.97 1007.98 1008.02 1008.23 1008.37 1008.30 1008.35 1008.11 1008.08 1008.43 1008.54 1008.47 1008.51 1008.34 1007.83 1006.77 1006.28 1007.42 1007.47 1007.33 1007.65 1008.37 1008.79 1008.97 1008.41 1008.34 1008.92 1009.94 1010.93 1011.01 1011.23 1011.32 1011.65 1012.46 1013.13
1012.61 1010.15 1010.03 1009.63 1009.43 1008.74 1008.39 1008.17 1007.90 1008.06 1008.05 1008.16 1008.04 1008.31 1008.35 1008.23 1008.46 1008.17 1007.90 1008.51 1008.97 1009.17 1009.69 1009.47 1008.54 1007.75 1007.11 1007.25 1007.80 1007.85 1008.19 1008.45 1008.86 1008.75 1008.42 1008.65 1009.67 1010.81 1011.73 1011.83 1012.05 1012.47 1012.88 1013.30 1013.96
1012.41 1010.56 1010.16 1009.09 1008.91 1009.04 1009.20 1008.84 1008.19 1007.92 1008.34 1008.36 1008.16 1008.20 1008.13 1008.05 1007.88 1007.83 1008.04 1008.07 1008.57 1009.28 1009.59 1009.59 1008.79 1008.45 1008.17 1008.23 1008.38 1008.58 1008.79 1008.98 1009.02 1009.59 1009.63 1010.04 1010.64 1012.18 1012.69 1012.71 1013.01 1013.21 1013.39 1013.78 1014.49
1012.69 1011.22 1010.38 1009.77 1009.67 1009.32 1009.67 1008.74 1008.68 1008.41 1008.52 1007.98 1008.30 1007.89 1008.20 1008.21 1008.00 1007.82 1007.84 1008.09 1008.14 1009.21 1009.22 1009.69 1009.03 1008.71 1008.13 1008.49 1008.49 1008.82 1009.40 1009.72 1009.92 1010.38 1010.60 1011.05 1011.65 1013.04 1013.30 1013.34 1013.49 1013.59 1013.82 1014.30 1014.54
1013.22 1012.33 1011.32 1010.28 1009.73 1009.36 1009.10 1009.29 1009.24 1009.53 1008.78 1008.78 1008.77 1008.36 1008.21 1008.18 1008.38 1008.40 1008.41 1008.82 1008.64 1008.59 1008.98 1009.33 1008.79 1008.46 1007.63 1008.66 1008.92 1009.27 1009.72 1010.10 1010.59 1011.37 1011.56 1011.61 1012.81 1013.25 1013.39 1013.85 1013.96 1013.94 1014.16 1014.44 1014.77
Thickness
5749 5750 5752 5753 5755 5756 5757 5758 5759 5761 5763 5765 5768 5770 5773 5775 5778 5784 5787 5801 5800 5795 5798 5798 5799 5801 5806 5802 5806 5806 5783 5774 5772 5768 5768 5781 5772 5774 5775 5766 5765 5766 5761 5761 5750
5749 5750 5751 5752 5754 5755 5755 5756 5758 5760 5762 5764 5767 5769 5772 5774 5786 5790 5803 5800 5798 5797 5799 5794 5790 5796 5796 5796 5798 5791 5785 5777 5788 5785 5778 5779 5776 5772 5765 5762 5759 5756 5756 5756 5749
5748 5749 5750 5750 5751 5752 5753 5754 5756 5758 5761 5763 5765 5767 5771 5774 5784 5799 5807 5800 5798 5799 5805 5806 5802 5796 5789 5796 5793 5789 5780 5783 5784 5784 5783 5782 5776 5780 5767 5762 5770 5761 5753 5749 5745
5747 5748 5748 5749 5749 5751 5752 5753 5753 5756 5759 5761 5764 5767 5770 5778 5768 5806 5803 5801 5797 5803 5802 5797 5795 5786 5787 5784 5792 5779 5785 5787 5784 5786 5782 5779 5787 5774 5774 5775 5772 5769 5761 5749 5741
5746 5747 5748 5748 5749 5750 5751 5752 5753 5754 5757 5759 5763 5765 5772 5778 5795 5803 5800 5797 5797 5802 5798 5795 5791 5791 5786 5791 5791 5784 5786 5788 5788 5785 5786 5789 5780 5778 5777 5780 5766 5764 5755 5747 5741
5745 5747 5748 5749 5749 5750 5750 5751 5752 5753 5755 5758 5761 5763 5775 5776 5809 5806 5802 5797 5801 5801 5801 5801 5798 5802 5793 5789 5786 5790 5787 5788 5788 5787 5786 5778 5782 5772 5782 5776 5763 5759 5754 5749 5742
5745 5746 5748 5749 5749 5750 5751 5752 5753 5753 5755 5757 5760 5766 5776 5784 5806 5805 5802 5800 5806 5806 5798 5806 5806 5796 5796 5786 5792 5787 5774 5789 5788 5787 5782 5782 5770 5769 5786 5771 5764 5758 5754 5749 5742
5745 5747 5749 5750 5749 5750 5751 5753 5755 5756 5757 5759 5760 5769 5781 5800 5802 5801 5804 5799 5805 5807 5804 5806 5807 5797 5790 5789 5786 5777 5774 5764 5787 5782 5782 5773 5769 5788 5792 5768 5761 5756 5752 5745 5739
5745 5747 5749 5750 5750 5751 5753 5756 5758 5759 5759 5760 5765 5771 5778 5796 5790 5801 5803 5792 5797 5801 5802 5803 5801 5790 5784 5774 5776 5780 5767 5773 5774 5782 5778 5767 5772 5775 5776 5765 5761 5756 5751 5743 5739
5745 5747 5749 5751 5752 5753 5755 5756 5757 5759 5761 5764 5771 5764 5782 5785 5796 5797 5801 5800 5791 5791 5786 5786 5787 5777 5781 5777 5764 5766 5770 5778 5771 5779 5772 5770 5770 5781 5766 5758 5756 5756 5750 5742 5737
5744 5747 5749 5751 5752 5753 5760 5765 5763 5761 5768 5778 5780 5781 5788 5798 5802 5791 5797 5791 5790 5786 5772 5782 5772 5772 5787 5785 5780 5776 5771 5769 5783 5783 5767 5772 5775 5779 5775 5757 5751 5750 5746 5740 5735
5744 5746 5748 5750 5751 5751 5756 5770 5774 5776 5767 5785 5781 5781 5791 5798 5780 5788 5798 5776 5775 5766 5779 5768 5764 5786 5787 5780 5773 5775 5770 5774 5781 5775 5764 5772 5770 5780 5777 5766 5756 5748 5742 5737 5732
5743 5746 5748 5749 5751 5754 5769 5774 5783 5783 5766 5774 5783 5781 5786 5791 5782 5784 5791 5787 5775 5768 5768 5765 5785 5784 5774 5773 5766 5775 5772 5769 5768 5766 5768 5760 5761 5780 5776 5764 5757 5751 5747 5739 5732
5742 5745 5747 5749 5751 5770 5771 5780 5780 5779 5761 5760 5770 5781 5785 5789 5772 5802 5801 5789 5778 5768 5773 5770 5789 5771 5765 5770 5779 5756 5788 5778 5770 5754 5754 5756 5734 5769 5770 5757 5751 5747 5741 5735 5729
5741 5744 5746 5746 5760 5769 5774 5778 5781 5772 5728 5770 5773 5799 5790 5778 5786 5782 5804 5789 5768 5777 5770 5768 5780 5772 5762 5770 5782 5764 5784 5776 5774 5761 5751 5756 5736 5763 5760 5748 5752 5746 5741 5735 5730
5741 5744 5746 5752 5757 5773 5774 5777 5773 5746 5723 5760 5777 5772 5769 5775 5780 5793 5782 5790 5791 5774 5778 5772 5793 5778 5772 5784 5785 5784 5770 5767 5767 5764 5735 5752 5744 5750 5751 5741 5741 5743 5736 5732 5726
5742 5745 5747 5756 5769 5770 5773 5769 5745 5734 5763 5754 5761 5771 5769 5764 5767 5774 5769 5763 5756 5743 5751 5770 5773 5784 5783 5770 5782 5772 5762 5748 5741 5735 5725 5746 5736 5740 5741 5741 5736 5730 5727 5721 5717
5743 5747 5753 5760 5764 5766 5768 5755 5723 5747 5751 5767 5764 5767 5761 5764 5765 5765 5761 5759 5777 5771 5763 5749 5746 5779 5788 5775 5767 5766 5757 5737 5715 5726 5736 5752 5716 5728 5736 5736 5733 5726 5720 5714 5703
5747 5756 5760 5765 5762 5762 5761 5738 5741 5748 5756 5754 5761 5754 5754 5759 5757 5758 5761 5764 5778 5782 5751 5759 5754 5780 5778 5779 5774 5762 5745 5758 5732 5746 5723 5738 5731 5743 5730 5727 5721 5715 5707 5702 5696
5755 5763 5765 5763 5761 5761 5753 5737 5747 5756 5756 5757 5743 5751 5742 5751 5749 5751 5752 5758 5756 5764 5772 5767 5741 5768 5768 5772 5768 5760 5758 5731 5743 5707 5708 5721 5707 5711 5711 5708 5714 5710 5703 5699 5692
5754 5761 5759 5761 5760 5757 5742 5748 5752 5761 5758 5748 5746 5742 5745 5739 5744 5744 5744 5749 5752 5753 5760 5759 5746 5752 5759 5757 5754 5750 5744 5734 5726 5717 5698 5700 5709 5707 5701 5702 5700 5704 5704 5695 5685
5754 5752 5761 5759 5748 5755 5748 5751 5741 5753 5757 5752 5749 5745 5741 5740 5735 5733 5731 5734 5743 5744 5744 5750 5743 5731 5742 5753 5753 5747 5734 5724 5702 5707 5717 5697 5693 5706 5702 5701 5697 5695 5693 5688 5675
5749 5752 5760 5758 5740 5743 5748 5747 5750 5748 5749 5748 5743 5746 5745 5734 5720 5729 5731 5741 5742 5740 5736 5742 5732 5724 5730 5725 5733 5726 5728 5720 5711 5706 5695 5691 5689 5705 5696 5692 5688 5682 5678 5667 5658
5742 5741 5749 5754 5750 5744 5740 5740 5740 5753 5747 5749 5746 5745 5737 5731 5733 5725 5732 5735 5736 5732 5717 5728 5727 5723 5717 5717 5723 5711 5714 5717 5707 5695 5700 5698 5690 5683 5678 5676 5675 5669 5663 5656 5645
5742 5740 5743 5735 5741 5740 5735 5735 5734 5734 5744 5745 5737 5737 5732 5722 5728 5725 5730 5733 5734 5719 5726 5723 5711 5720 5721 5720 5718 5710 5704 5704 5699 5696 5686 5688 5680 5668 5667 5667 5663 5661 5656 5646 5632
5729 5734 5744 5738 5736 5735 5720 5734 5730 5735 5734 5734 5727 5738 5734 5720 5725 5720 5729 5727 5727 5725 5721 5718 5708 5714 5711 5716 5714 5701 5699 5696 5694 5689 5687 5682 5671 5668 5666 5665 5657 5652 5645 5633 5626
5729 5734 5733 5716 5731 5730 5731 5728 5726 5726 5737 5733 5727 5726 5722 5726 5731 5732 5733 5726 5729 5723 5714 5711 5713 5708 5706 5708 5702 5683 5691 5689 5686 5682 5678 5667 5662 5665 5659 5651 5647 5644 5638 5629 5619